Home > Weather > Chelyabinsk > Past weeks

Flag for Russia Weather for the Past 2 Weeks in Chelyabinsk, Russia

Now
7 °F

Ice fog.


Feels Like: 0 °F
Forecast: 1 / 13 °F
Wind: 3 mph from Southeast

Location: Chelyabinsk-Balandino

Current Time: Feb 15, 2016 at 12:42:58 AM

Latest Report: Feb 15, 2016 at 12:00 AM


Visibility: 2 mi

Pressure: 30.60 "Hg

Humidity: 85%

Dew point: 3 °F

Location of ChelyabinskLocation

Historic Weather in Chelyabinsk — Graph

°F

Chelyabinsk Temperature Yesterday

Maximum temperature yesterday: 23 °F (at 6:00 AM)
Minimum temperature yesterday: 7 °F (at 11:00 PM)
Average temperature yesterday: 19 °F

High & Low Weather Summary for the Past Weeks

 TemperatureHumidityPressure
High36 °F (Feb 10, 4:30 PM)100% (Feb 14, 2:00 AM)30.60 "Hg (Feb 14, 2:00 AM)
Low-17 °F (Jan 31, 8:30 AM)26% (Feb 10, 11:30 PM)29.45 "Hg (Feb 4, 1:30 PM)
Average18 °F78%30.14 "Hg
* Reported Jan 30 11:00 PM — Feb 14 11:30 PM, Chelyabinsk, Weather by CustomWeather, © 2016

Note: Actual official high and low records may vary slightly from our data, if they occured in-between our weather recording intervals... More about our weather records

Advertising

Chelyabinsk Weather History for the Previous 24 Hours

 ConditionsComfort  
Time TempWeatherWind HumidityBarometerVisibility
11:30 PM
Sun, Feb 14
7 °FIce fog.1 mph92%30.60 "Hg2 mi
11:00 PM7 °FIce fog.1 mph85%30.60 "Hg2 mi
10:30 PM9 °FSleet. Ice fog.3 mph85%30.60 "Hg2 mi
9:30 PM10 °FClear.3 mph92%30.60 "Hg10 mi
9:00 PM12 °FClear.3 mph85%30.60 "Hg10 mi
8:30 PM12 °FClear.3 mph85%30.60 "Hg10 mi
8:00 PM12 °FClear.3 mph85%30.60 "Hg10 mi
7:30 PM14 °FSunny.6 mph85%30.60 "Hg10 mi
7:00 PM16 °FScattered clouds.6 mph79%30.60 "HgN/A
6:30 PM16 °FScattered clouds.6 mph86%30.57 "HgN/A
6:00 PM19 °FPartly sunny.6 mph86%30.57 "HgN/A
5:30 PM21 °FPartly sunny.6 mph80%30.57 "HgN/A
5:00 PM21 °FPartly sunny.6 mph80%30.57 "HgN/A
4:30 PM21 °FPartly sunny.6 mph86%30.57 "HgN/A
4:00 PM23 °FPartly sunny.6 mph80%30.57 "HgN/A
3:30 PM23 °FPartly sunny.6 mph80%30.57 "HgN/A
3:00 PM23 °FPartly sunny.6 mph80%30.57 "HgN/A
2:30 PM23 °FPartly sunny.8 mph80%30.57 "HgN/A
2:00 PM23 °FPartly sunny.8 mph80%30.57 "HgN/A
1:30 PM23 °FLight snow. Partly sunny.8 mph80%30.57 "Hg4 mi
1:00 PM23 °FLight snow. Partly sunny.8 mph80%30.57 "Hg4 mi
12:30 PM21 °FLight snow. Partly sunny.8 mph86%30.57 "Hg4 mi
12:00 PM21 °FLight snow. Partly sunny.8 mph86%30.57 "Hg4 mi
11:30 AM21 °FLight snow. Ice fog.6 mph93%30.57 "Hg2 mi
11:00 AM21 °FLight snow. Ice fog.8 mph93%30.57 "Hg2 mi
10:30 AM21 °FLight snow. Ice fog.6 mph93%30.57 "Hg2 mi
10:00 AM21 °FLight snow. Ice fog.3 mph93%30.57 "Hg2 mi
9:30 AM21 °FLight snow. Ice fog.1 mph93%30.57 "Hg2 mi
9:00 AM21 °FLight snow. Ice fog.1 mph93%30.54 "Hg2 mi
8:30 AM21 °FLight snow. Ice fog.3 mph93%30.57 "Hg2 mi
8:00 AM21 °FLight snow. Ice fog.3 mph93%30.54 "Hg2 mi
7:30 AM21 °FLight snow. Passing clouds.1 mph93%30.54 "Hg4 mi
7:00 AM23 °FLight snow. Passing clouds.3 mph86%30.54 "Hg4 mi
6:30 AM23 °FLight snow. Ice fog.3 mph86%30.54 "Hg3 mi
6:00 AM23 °FLight snow. Ice fog.3 mph86%30.54 "Hg2 mi
5:30 AM21 °FLight snow. Ice fog.3 mph100%30.54 "Hg2 mi
5:00 AM21 °FLight snow. Ice fog.6 mph100%30.54 "Hg2 mi
4:30 AM21 °FLight snow. Ice fog.6 mph93%30.54 "Hg1 mi
4:00 AM21 °FLight snow. Ice fog.3 mph93%30.54 "Hg1 mi
3:30 AM21 °FLight snow. Ice fog.3 mph93%30.54 "Hg1 mi
2:30 AM21 °FIce fog.3 mph93%30.54 "Hg1 mi
2:00 AM19 °FIce fog.3 mph100%30.54 "Hg1 mi
1:30 AM19 °FIce fog.1 mph93%30.54 "Hg2 mi
1:00 AM19 °FIce fog.1 mph93%30.54 "Hg2 mi
12:30 AM21 °FIce fog.1 mph93%30.54 "Hg2 mi
12:00 AM21 °FIce fog.3 mph93%30.54 "Hg2 mi
Weather by CustomWeather, © 2016

See weather overviewHow to use our weather pages